Date String (YYYY-MM-DD hh:mm:ss) UTC,Instrument flags,Ambient pressure (hPa),Sample flow (lpm),Bypass flow (lpm),Sample temperature (°C),Ambient temperature (°C),ASC tube jacket temperature (°C),LED temperature (°C),Box temperature (°C),Sample RH (%),Span deviation,Mass concentration (μg/m³),Mass concentration (μg/m³),Mass concentration (μg/m³)
DateTimeUTC,F1_M11,P_M11,Q1_M11,Q2_M11,T1_M11,T2_M11,T3_M11,T4_M11,T5_M11,U1_M11,ZSPAN_M11,X0_M11,X2_M11,X1_M11
2022-08-02 16:00:00,,0826.4,5.00,0.00,29.5,28.1,00.0,38.3,31.4,26.9,0001.9,0013.51,0006.72,0006.23
2022-08-02 16:01:00,,0826.4,5.00,0.00,29.5,28.3,00.0,38.3,31.5,27.1,0001.7,0012.56,0006.41,0005.96
2022-08-02 16:02:00,,0826.4,5.00,0.00,29.6,28.4,00.0,38.3,31.5,26.0,0001.4,0010.46,0006.00,0005.64
2022-08-02 16:03:00,,0826.4,4.99,0.00,29.6,28.1,00.0,38.3,31.5,25.0,0001.2,0010.09,0005.63,0005.31
2022-08-02 16:04:00,,0826.3,5.01,0.00,29.5,27.6,00.0,38.3,31.4,25.4,0000.3,0009.61,0005.28,0005.02
2022-08-02 16:05:00,,0826.3,5.00,0.00,29.5,27.4,00.0,38.2,31.3,25.7,0000.0,0009.17,0004.96,0004.72
2022-08-02 16:06:00,,0826.4,5.00,0.00,29.5,27.5,00.0,38.2,31.3,25.8,0000.0,0008.55,0004.67,0004.44
2022-08-02 16:07:00,,0826.3,4.99,0.00,29.5,27.6,00.0,38.2,31.2,26.0,0000.0,0007.43,0004.37,0004.19
2022-08-02 16:08:00,,0826.3,5.00,0.00,29.5,27.8,00.0,38.2,31.2,26.2,0000.0,0007.01,0004.17,0003.99
2022-08-02 16:09:00,,0826.3,5.00,0.00,29.5,28.0,00.0,38.2,31.3,25.1,0000.0,0006.43,0004.01,0003.83
2022-08-02 16:10:00,,0826.3,4.99,0.00,29.5,28.1,00.0,38.2,31.4,24.9,0000.0,0005.81,0003.87,0003.70
2022-08-02 16:11:00,,0826.2,5.01,0.00,29.5,28.3,00.0,38.3,31.5,25.2,0000.0,0005.58,0003.75,0003.56
2022-08-02 16:12:00,,0826.2,5.01,0.00,29.6,28.4,00.0,38.3,31.5,25.5,0000.0,0005.40,0003.69,0003.50
2022-08-02 16:13:00,,0826.2,5.00,0.00,29.6,27.9,00.0,38.3,31.4,25.0,0000.0,0005.28,0003.66,0003.46
2022-08-02 16:14:00,,0826.2,4.99,0.00,29.5,27.5,00.0,38.2,31.4,25.1,0000.0,0005.05,0003.63,0003.44
2022-08-02 16:15:00,,0826.2,5.00,0.00,29.5,27.5,00.0,38.2,31.3,24.7,0000.0,0005.00,0003.60,0003.40
2022-08-02 16:16:00,,0826.2,4.99,0.00,29.5,27.6,00.0,38.2,31.3,24.9,0000.0,0004.92,0003.57,0003.36
2022-08-02 16:17:00,,0826.2,5.01,0.00,29.5,27.7,00.0,38.2,31.3,25.2,0000.0,0004.86,0003.54,0003.33
2022-08-02 16:18:00,,0826.1,5.00,0.00,29.5,27.9,00.0,38.2,31.3,25.3,0000.0,0004.78,0003.48,0003.27
2022-08-02 16:19:00,,0826.1,5.00,0.00,29.5,28.1,00.0,38.2,31.4,25.3,0000.0,0004.59,0003.41,0003.20
2022-08-02 16:20:00,,0826.1,5.00,0.00,29.5,28.2,00.0,38.3,31.5,25.1,0000.0,0004.43,0003.33,0003.14
2022-08-02 16:21:00,,0826.1,5.00,0.00,29.6,28.3,00.0,38.3,31.5,24.9,0000.0,0004.20,0003.25,0003.03
2022-08-02 16:22:00,,0826.2,5.00,0.00,29.6,27.9,00.0,38.3,31.4,24.9,0000.0,0003.76,0003.19,0002.95
2022-08-02 16:23:00,,0826.2,4.99,0.00,29.5,27.5,00.0,38.2,31.3,24.9,0000.0,0003.67,0003.14,0002.88
2022-08-02 16:24:00,,0826.2,5.01,0.00,29.5,27.5,00.0,38.2,31.3,25.2,0000.0,0003.61,0003.08,0002.79
2022-08-02 16:25:00,,0826.2,4.99,0.00,29.5,27.6,00.0,38.2,31.3,25.1,0000.0,0003.56,0003.02,0002.73
2022-08-02 16:26:00,,0826.1,4.99,0.00,29.5,27.7,00.0,38.2,31.3,25.5,0000.0,0003.55,0003.01,0002.73
2022-08-02 16:27:00,,0826.0,5.01,0.00,29.5,27.9,00.0,38.2,31.3,25.8,0000.0,0003.50,0002.97,0002.71
2022-08-02 16:28:00,,0826.1,4.99,0.00,29.5,28.1,00.0,38.2,31.3,26.6,0000.0,0003.45,0002.93,0002.68
2022-08-02 16:29:00,,0826.2,5.00,0.00,29.5,28.2,00.0,38.2,31.4,26.0,0000.0,0003.35,0002.92,0002.70
2022-08-02 16:30:00,,0826.1,4.99,0.00,29.6,28.3,00.0,38.3,31.5,26.3,0000.0,0003.48,0003.04,0002.81
2022-08-02 16:31:00,,0826.1,5.01,0.00,29.6,28.0,00.0,38.2,31.4,26.7,0000.0,0003.63,0003.16,0002.96
2022-08-02 16:32:00,,0826.2,4.99,0.00,29.5,27.6,00.0,38.2,31.3,27.6,0000.0,0003.76,0003.25,0003.10
2022-08-02 16:33:00,,0826.1,4.99,0.00,29.5,27.5,00.0,38.2,31.3,26.5,0000.0,0004.30,0003.35,0003.19
2022-08-02 16:34:00,,0825.9,5.01,0.00,29.5,27.6,00.0,38.2,31.2,27.1,0000.0,0004.58,0003.43,0003.26
2022-08-02 16:35:00,,0826.1,4.99,0.00,29.5,27.8,00.0,38.2,31.2,28.3,0000.0,0004.72,0003.50,0003.32
2022-08-02 16:36:00,,0826.2,5.00,0.00,29.5,27.9,00.0,38.2,31.3,28.3,0000.0,0004.90,0003.60,0003.42
2022-08-02 16:37:00,,0826.2,5.00,0.00,29.5,28.1,00.0,38.2,31.4,28.0,0000.0,0005.11,0003.68,0003.48
2022-08-02 16:38:00,,0826.2,5.00,0.00,29.5,28.2,00.0,38.2,31.4,28.0,0000.0,0005.33,0003.78,0003.57
2022-08-02 16:39:00,,0826.2,5.00,0.00,29.5,27.9,00.0,38.2,31.4,27.9,0000.0,0005.62,0003.90,0003.66
2022-08-02 16:40:00,,0826.2,5.01,0.00,29.5,27.4,00.0,38.2,31.3,28.4,0000.0,0005.88,0004.00,0003.74
2022-08-02 16:41:00,,0826.2,4.99,0.00,29.5,27.3,00.0,38.2,31.3,28.0,0000.0,0006.07,0004.05,0003.79
2022-08-02 16:42:00,,0826.2,5.01,0.00,29.4,27.4,00.0,38.2,31.2,27.7,0000.0,0006.29,0004.09,0003.82
2022-08-02 16:43:00,,0826.2,4.99,0.00,29.4,27.6,00.0,38.2,31.2,28.2,0000.0,0006.90,0004.15,0003.85
2022-08-02 16:44:00,,0826.2,5.00,0.00,29.4,27.8,00.0,38.2,31.2,28.1,0000.0,0006.94,0004.21,0003.90
2022-08-02 16:45:00,,0826.2,5.00,0.00,29.5,28.0,00.0,38.2,31.3,27.5,0000.0,0007.21,0004.27,0003.95
2022-08-02 16:46:00,,0826.2,5.01,0.00,29.5,28.2,00.0,38.2,31.4,27.0,0000.0,0007.22,0004.29,0003.97
2022-08-02 16:47:00,,0826.2,5.00,0.00,29.5,28.3,00.0,38.2,31.4,27.0,0000.0,0007.27,0004.27,0003.96
2022-08-02 16:48:00,,0826.2,5.00,0.00,29.5,28.0,00.0,38.2,31.4,27.1,0000.0,0007.39,0004.25,0003.95
2022-08-02 16:49:00,,0826.2,4.99,0.00,29.5,27.5,00.0,38.2,31.3,27.1,0000.0,0007.93,0004.21,0003.93
2022-08-02 16:50:00,,0826.2,5.01,0.00,29.5,27.4,00.0,38.2,31.3,27.0,0000.0,0008.04,0004.18,0003.91
2022-08-02 16:51:00,,0826.2,4.99,0.00,29.4,27.5,00.0,38.2,31.2,27.5,0000.0,0008.04,0004.18,0003.90
2022-08-02 16:52:00,,0826.2,5.01,0.00,29.4,27.6,00.0,38.2,31.2,27.8,0000.0,0008.03,0004.20,0003.91
2022-08-02 16:53:00,,0826.2,5.00,0.00,29.4,27.8,00.0,38.2,31.2,27.8,0000.0,0007.95,0004.19,0003.91
2022-08-02 16:54:00,,0826.2,5.00,0.00,29.4,28.0,00.0,38.2,31.3,28.4,0000.0,0007.64,0004.17,0003.90
2022-08-02 16:55:00,,0826.2,5.00,0.00,29.5,28.2,00.0,38.2,31.4,27.6,0000.0,0007.40,0004.12,0003.89
2022-08-02 16:56:00,,0826.2,5.00,0.00,29.5,28.2,00.0,38.2,31.4,26.8,0000.0,0007.20,0004.11,0003.91
2022-08-02 16:57:00,,0826.2,5.00,0.00,29.5,27.6,00.0,38.2,31.3,26.9,0000.0,0007.18,0004.13,0003.93
2022-08-02 16:58:00,,0826.2,5.01,0.00,29.5,27.3,00.0,38.2,31.2,27.3,0000.0,0007.15,0004.16,0003.97
2022-08-02 16:59:00,,0826.1,4.99,0.00,29.4,27.3,00.0,38.2,31.2,27.0,0000.0,0006.93,0004.19,0004.01
